owner,sensor,date,latitude,longitude,vertical_datum,mass_concentration_of_oxygen_in_sea_water,qcFlag 
SCCF RECON,ioos:station:SCCF:56:1,2016-11-01T00:00:00Z,26.4645,-82.1044,1.63,7.41,1111122 
SCCF RECON,ioos:station:SCCF:56:1,2016-11-01T01:00:00Z,26.4645,-82.1044,1.68,6.97,1111122 
SCCF RECON,ioos:station:SCCF:56:1,2016-11-01T02:00:00Z,26.4645,-82.1044,1.759,7.08,1111122 
SCCF RECON,ioos:station:SCCF:56:1,2016-11-01T03:00:00Z,26.4645,-82.1044,1.878,6.45,1111122 
SCCF RECON,ioos:station:SCCF:56:1,2016-11-01T04:00:00Z,26.4645,-82.1044,1.963,6.26,1111122 
SCCF RECON,ioos:station:SCCF:56:1,2016-11-01T05:00:00Z,26.4645,-82.1044,2.009,6.66,1111122 
SCCF RECON,ioos:station:SCCF:56:1,2016-11-01T06:00:00Z,26.4645,-82.1044,2.009,6.76,1111122 
SCCF RECON,ioos:station:SCCF:56:1,2016-11-01T07:00:00Z,26.4645,-82.1044,1.94,4.62,1111122 
SCCF RECON,ioos:station:SCCF:56:1,2016-11-01T08:00:00Z,26.4645,-82.1044,1.85,5.47,1111122 
SCCF RECON,ioos:station:SCCF:56:1,2016-11-01T09:00:00Z,26.4645,-82.1044,1.748,5.51,1111122 
SCCF RECON,ioos:station:SCCF:56:1,2016-11-01T10:00:00Z,26.4645,-82.1044,1.617,4.97,1111122 
SCCF RECON,ioos:station:SCCF:56:1,2016-11-01T11:00:00Z,26.4645,-82.1044,1.5,4.38,1111122 
SCCF RECON,ioos:station:SCCF:56:1,2016-11-01T12:00:00Z,26.4645,-82.1044,1.395,3.98,1111122 
SCCF RECON,ioos:station:SCCF:56:1,2016-11-01T13:00:00Z,26.4645,-82.1044,1.32,3.63,1111122 
SCCF RECON,ioos:station:SCCF:56:1,2016-11-01T14:00:00Z,26.4645,-82.1044,1.329,3.71,1111122 
SCCF RECON,ioos:station:SCCF:56:1,2016-11-01T15:00:00Z,26.4645,-82.1044,1.459,5.93,1111122 
SCCF RECON,ioos:station:SCCF:56:1,2016-11-01T16:00:00Z,26.4645,-82.1044,1.64,8.22,1111122 
SCCF RECON,ioos:station:SCCF:56:1,2016-11-01T17:00:00Z,26.4645,-82.1044,1.76,8.34,1111122 
SCCF RECON,ioos:station:SCCF:56:1,2016-11-01T18:00:00Z,26.4645,-82.1044,1.85,8.55,1111122 
SCCF RECON,ioos:station:SCCF:56:1,2016-11-01T19:00:00Z,26.4645,-82.1044,1.899,8.63,1111122 
SCCF RECON,ioos:station:SCCF:56:1,2016-11-01T20:00:00Z,26.4645,-82.1044,1.908,8.41,1111122 
SCCF RECON,ioos:station:SCCF:56:1,2016-11-01T21:00:00Z,26.4645,-82.1044,1.842,8.31,1111122 
SCCF RECON,ioos:station:SCCF:56:1,2016-11-01T22:00:00Z,26.4645,-82.1044,1.78,8.01,1111122 
SCCF RECON,ioos:station:SCCF:56:1,2016-11-01T23:00:00Z,26.4645,-82.1044,1.72,7.26,1111122 
SCCF RECON,ioos:station:SCCF:56:1,2016-11-02T00:00:00Z,26.4645,-82.1044,1.68,6.98,1111122 
SCCF RECON,ioos:station:SCCF:56:1,2016-11-02T01:00:00Z,26.4645,-82.1044,1.68,6.95,1111122 
SCCF RECON,ioos:station:SCCF:56:1,2016-11-02T02:00:00Z,26.4645,-82.1044,1.74,6.66,1111122 
SCCF RECON,ioos:station:SCCF:56:1,2016-11-02T03:00:00Z,26.4645,-82.1044,1.84,6.05,1111122 
SCCF RECON,ioos:station:SCCF:56:1,2016-11-02T04:00:00Z,26.4645,-82.1044,1.95,6.68,1111122 
SCCF RECON,ioos:station:SCCF:56:1,2016-11-02T05:00:00Z,26.4645,-82.1044,2.03,6.68,1111122 
SCCF RECON,ioos:station:SCCF:56:1,2016-11-02T06:00:00Z,26.4645,-82.1044,2.06,6.63,1111122 
SCCF RECON,ioos:station:SCCF:56:1,2016-11-02T07:00:00Z,26.4645,-82.1044,2.017,6.09,1111122 
SCCF RECON,ioos:station:SCCF:56:1,2016-11-02T08:00:00Z,26.4645,-82.1044,1.912,6.01,1111122 
SCCF RECON,ioos:station:SCCF:56:1,2016-11-02T09:00:00Z,26.4645,-82.1044,1.8,5.28,1111122 
SCCF RECON,ioos:station:SCCF:56:1,2016-11-02T10:00:00Z,26.4645,-82.1044,1.68,5.0,1111122 
SCCF RECON,ioos:station:SCCF:56:1,2016-11-02T11:00:00Z,26.4645,-82.1044,1.569,4.44,1111122 
SCCF RECON,ioos:station:SCCF:56:1,2016-11-02T12:00:00Z,26.4645,-82.1044,1.451,4.05,1111122 
SCCF RECON,ioos:station:SCCF:56:1,2016-11-02T13:00:00Z,26.4645,-82.1044,1.351,3.69,1111122 
SCCF RECON,ioos:station:SCCF:56:1,2016-11-02T14:00:00Z,26.4645,-82.1044,1.28,3.62,1111122 
SCCF RECON,ioos:station:SCCF:56:1,2016-11-02T15:00:00Z,26.4645,-82.1044,1.321,3.94,1111122 
SCCF RECON,ioos:station:SCCF:56:1,2016-11-02T16:00:00Z,26.4645,-82.1044,1.51,6.81,1111122 
SCCF RECON,ioos:station:SCCF:56:1,2016-11-02T17:00:00Z,26.4645,-82.1044,1.67,7.94,1111122 
SCCF RECON,ioos:station:SCCF:56:1,2016-11-02T18:00:00Z,26.4645,-82.1044,1.77,8.74,1111122 
SCCF RECON,ioos:station:SCCF:56:1,2016-11-02T19:00:00Z,26.4645,-82.1044,1.84,8.72,1111122 
SCCF RECON,ioos:station:SCCF:56:1,2016-11-02T20:00:00Z,26.4645,-82.1044,1.86,8.32,1111122 
SCCF RECON,ioos:station:SCCF:56:1,2016-11-02T21:00:00Z,26.4645,-82.1044,1.84,7.76,1111122 
SCCF RECON,ioos:station:SCCF:56:1,2016-11-02T22:00:00Z,26.4645,-82.1044,1.81,7.53,1111122 
SCCF RECON,ioos:station:SCCF:56:1,2016-11-02T23:00:00Z,26.4645,-82.1044,1.74,7.49,1111122 
SCCF RECON,ioos:station:SCCF:56:1,2016-11-03T00:00:00Z,26.4645,-82.1044,1.665,7.26,1111122 
SCCF RECON,ioos:station:SCCF:56:1,2016-11-03T01:00:00Z,26.4645,-82.1044,1.62,6.96,1111122 
SCCF RECON,ioos:station:SCCF:56:1,2016-11-03T02:00:00Z,26.4645,-82.1044,1.64,6.51,1111122 
SCCF RECON,ioos:station:SCCF:56:1,2016-11-03T03:00:00Z,26.4645,-82.1044,1.73,5.86,1111122 
SCCF RECON,ioos:station:SCCF:56:1,2016-11-03T04:00:00Z,26.4645,-82.1044,1.851,6.46,1111122 
SCCF RECON,ioos:station:SCCF:56:1,2016-11-03T05:00:00Z,26.4645,-82.1044,1.95,6.36,1111122 
SCCF RECON,ioos:station:SCCF:56:1,2016-11-03T06:00:00Z,26.4645,-82.1044,2.0,6.31,1111122 
SCCF RECON,ioos:station:SCCF:56:1,2016-11-03T07:00:00Z,26.4645,-82.1044,1.99,6.21,1111122 
SCCF RECON,ioos:station:SCCF:56:1,2016-11-03T08:00:00Z,26.4645,-82.1044,1.94,5.92,1111122 
SCCF RECON,ioos:station:SCCF:56:1,2016-11-03T09:00:00Z,26.4645,-82.1044,1.85,5.41,1111122 
SCCF RECON,ioos:station:SCCF:56:1,2016-11-03T10:00:00Z,26.4645,-82.1044,1.748,5.1,1111122 
SCCF RECON,ioos:station:SCCF:56:1,2016-11-03T11:00:00Z,26.4645,-82.1044,1.63,4.55,1111122 
SCCF RECON,ioos:station:SCCF:56:1,2016-11-03T12:00:00Z,26.4645,-82.1044,1.53,4.03,1111122 
SCCF RECON,ioos:station:SCCF:56:1,2016-11-03T13:00:00Z,26.4645,-82.1044,1.414,3.57,1111122 
SCCF RECON,ioos:station:SCCF:56:1,2016-11-03T14:00:00Z,26.4645,-82.1044,1.32,3.43,1111122 
SCCF RECON,ioos:station:SCCF:56:1,2016-11-03T15:00:00Z,26.4645,-82.1044,1.303,3.45,1111122 
SCCF RECON,ioos:station:SCCF:56:1,2016-11-03T16:00:00Z,26.4645,-82.1044,1.421,4.58,1111122 
SCCF RECON,ioos:station:SCCF:56:1,2016-11-03T17:00:00Z,26.4645,-82.1044,1.57,7.03,1111122 
SCCF RECON,ioos:station:SCCF:56:1,2016-11-03T18:00:00Z,26.4645,-82.1044,1.69,7.92,1111122 
SCCF RECON,ioos:station:SCCF:56:1,2016-11-03T19:00:00Z,26.4645,-82.1044,1.78,7.74,1111122 
SCCF RECON,ioos:station:SCCF:56:1,2016-11-03T20:00:00Z,26.4645,-82.1044,1.832,7.18,1111122 
SCCF RECON,ioos:station:SCCF:56:1,2016-11-03T21:00:00Z,26.4645,-82.1044,1.842,8.11,1111122 
SCCF RECON,ioos:station:SCCF:56:1,2016-11-03T22:00:00Z,26.4645,-82.1044,1.769,7.73,1111122 
SCCF RECON,ioos:station:SCCF:56:1,2016-11-03T23:00:00Z,26.4645,-82.1044,1.7,7.29,1111122 
SCCF RECON,ioos:station:SCCF:56:1,2016-11-04T00:00:00Z,26.4645,-82.1044,1.68,7.5,1111122 
SCCF RECON,ioos:station:SCCF:56:1,2016-11-04T01:00:00Z,26.4645,-82.1044,1.68,7.23,1111122 
SCCF RECON,ioos:station:SCCF:56:1,2016-11-04T02:00:00Z,26.4645,-82.1044,1.67,6.98,1111122 
SCCF RECON,ioos:station:SCCF:56:1,2016-11-04T03:00:00Z,26.4645,-82.1044,1.71,6.96,1111122 
SCCF RECON,ioos:station:SCCF:56:1,2016-11-04T04:00:00Z,26.4645,-82.1044,1.78,4.72,1111122 
SCCF RECON,ioos:station:SCCF:56:1,2016-11-04T05:00:00Z,26.4645,-82.1044,1.86,4.87,1111122 
SCCF RECON,ioos:station:SCCF:56:1,2016-11-04T06:00:00Z,26.4645,-82.1044,1.91,5.79,1111122 
SCCF RECON,ioos:station:SCCF:56:1,2016-11-04T07:00:00Z,26.4645,-82.1044,1.941,5.63,1111122 
SCCF RECON,ioos:station:SCCF:56:1,2016-11-04T08:00:00Z,26.4645,-82.1044,1.939,5.95,1111122 
SCCF RECON,ioos:station:SCCF:56:1,2016-11-04T09:00:00Z,26.4645,-82.1044,1.87,5.63,1111122 
SCCF RECON,ioos:station:SCCF:56:1,2016-11-04T10:00:00Z,26.4645,-82.1044,1.754,5.04,1111122 
SCCF RECON,ioos:station:SCCF:56:1,2016-11-04T11:00:00Z,26.4645,-82.1044,1.64,4.58,1111122 
SCCF RECON,ioos:station:SCCF:56:1,2016-11-04T12:00:00Z,26.4645,-82.1044,1.53,3.95,1111122 
SCCF RECON,ioos:station:SCCF:56:1,2016-11-04T13:00:00Z,26.4645,-82.1044,1.43,3.51,1111122 
SCCF RECON,ioos:station:SCCF:56:1,2016-11-04T14:00:00Z,26.4645,-82.1044,1.34,3.21,1111122 
SCCF RECON,ioos:station:SCCF:56:1,2016-11-04T15:00:00Z,26.4645,-82.1044,1.29,3.2,1111122 
SCCF RECON,ioos:station:SCCF:56:1,2016-11-04T16:00:00Z,26.4645,-82.1044,1.308,3.39,1111122 
SCCF RECON,ioos:station:SCCF:56:1,2016-11-04T17:00:00Z,26.4645,-82.1044,1.42,5.88,1111122 
SCCF RECON,ioos:station:SCCF:56:1,2016-11-04T18:00:00Z,26.4645,-82.1044,1.55,7.28,1111122 
SCCF RECON,ioos:station:SCCF:56:1,2016-11-04T19:00:00Z,26.4645,-82.1044,1.66,7.1,1111122 
SCCF RECON,ioos:station:SCCF:56:1,2016-11-04T20:00:00Z,26.4645,-82.1044,1.72,6.64,1111122 
SCCF RECON,ioos:station:SCCF:56:1,2016-11-04T21:00:00Z,26.4645,-82.1044,1.77,6.65,1111122 
SCCF RECON,ioos:station:SCCF:56:1,2016-11-04T22:00:00Z,26.4645,-82.1044,1.79,6.88,1111122 
SCCF RECON,ioos:station:SCCF:56:1,2016-11-04T23:00:00Z,26.4645,-82.1044,1.76,7.48,1111122 
SCCF RECON,ioos:station:SCCF:56:1,2016-11-05T00:00:00Z,26.4645,-82.1044,1.7,7.02,1111122 
SCCF RECON,ioos:station:SCCF:56:1,2016-11-05T01:00:00Z,26.4645,-82.1044,1.65,6.42,1111122 
SCCF RECON,ioos:station:SCCF:56:1,2016-11-05T02:00:00Z,26.4645,-82.1044,1.62,6.0,1111122 
SCCF RECON,ioos:station:SCCF:56:1,2016-11-05T03:00:00Z,26.4645,-82.1044,1.62,5.8,1111122 
SCCF RECON,ioos:station:SCCF:56:1,2016-11-05T04:00:00Z,26.4645,-82.1044,1.68,4.97,1111122 
SCCF RECON,ioos:station:SCCF:56:1,2016-11-05T05:00:00Z,26.4645,-82.1044,1.76,4.25,1111122 
SCCF RECON,ioos:station:SCCF:56:1,2016-11-05T06:00:00Z,26.4645,-82.1044,1.85,4.9,1111122 
SCCF RECON,ioos:station:SCCF:56:1,2016-11-05T07:00:00Z,26.4645,-82.1044,1.9,4.56,1111122 
SCCF RECON,ioos:station:SCCF:56:1,2016-11-05T08:00:00Z,26.4645,-82.1044,1.91,5.41,1111122 
SCCF RECON,ioos:station:SCCF:56:1,2016-11-05T09:00:00Z,26.4645,-82.1044,1.89,5.19,1111122 
SCCF RECON,ioos:station:SCCF:56:1,2016-11-05T10:00:00Z,26.4645,-82.1044,1.82,5.03,1111122 
SCCF RECON,ioos:station:SCCF:56:1,2016-11-05T11:00:00Z,26.4645,-82.1044,1.704,4.63,1111122 
SCCF RECON,ioos:station:SCCF:56:1,2016-11-05T12:00:00Z,26.4645,-82.1044,1.562,3.8,1111122 
SCCF RECON,ioos:station:SCCF:56:1,2016-11-05T13:00:00Z,26.4645,-82.1044,1.464,3.36,1111122 
SCCF RECON,ioos:station:SCCF:56:1,2016-11-05T14:00:00Z,26.4645,-82.1044,1.384,3.19,1111122 
SCCF RECON,ioos:station:SCCF:56:1,2016-11-05T15:00:00Z,26.4645,-82.1044,1.318,3.29,1111122 
SCCF RECON,ioos:station:SCCF:56:1,2016-11-05T16:00:00Z,26.4645,-82.1044,1.29,3.58,1111122 
SCCF RECON,ioos:station:SCCF:56:1,2016-11-05T17:00:00Z,26.4645,-82.1044,1.33,4.34,1111122 
SCCF RECON,ioos:station:SCCF:56:1,2016-11-05T18:00:00Z,26.4645,-82.1044,1.43,8.23,1111122 
SCCF RECON,ioos:station:SCCF:56:1,2016-11-05T19:00:00Z,26.4645,-82.1044,1.526,8.5,1111122 
SCCF RECON,ioos:station:SCCF:56:1,2016-11-05T20:00:00Z,26.4645,-82.1044,1.63,8.31,1111122 
SCCF RECON,ioos:station:SCCF:56:1,2016-11-05T21:00:00Z,26.4645,-82.1044,1.719,7.54,1111122 
SCCF RECON,ioos:station:SCCF:56:1,2016-11-05T22:00:00Z,26.4645,-82.1044,1.78,6.55,1111122 
SCCF RECON,ioos:station:SCCF:56:1,2016-11-05T23:00:00Z,26.4645,-82.1044,1.809,6.99,1111122 
SCCF RECON,ioos:station:SCCF:56:1,2016-11-06T00:00:00Z,26.4645,-82.1044,1.781,6.74,1111122 
SCCF RECON,ioos:station:SCCF:56:1,2016-11-06T01:00:00Z,26.4645,-82.1044,1.731,6.6,1111122 
SCCF RECON,ioos:station:SCCF:56:1,2016-11-06T02:00:00Z,26.4645,-82.1044,1.68,6.53,1111122 
SCCF RECON,ioos:station:SCCF:56:1,2016-11-06T03:00:00Z,26.4645,-82.1044,1.63,6.36,1111122 
SCCF RECON,ioos:station:SCCF:56:1,2016-11-06T04:00:00Z,26.4645,-82.1044,1.602,5.87,1111122 
SCCF RECON,ioos:station:SCCF:56:1,2016-11-06T05:00:00Z,26.4645,-82.1044,1.597,5.66,1111122 
SCCF RECON,ioos:station:SCCF:56:1,2016-11-06T06:00:00Z,26.4645,-82.1044,1.64,5.72,1111122 
SCCF RECON,ioos:station:SCCF:56:1,2016-11-06T07:00:00Z,26.4645,-82.1044,1.68,6.26,1111122 
SCCF RECON,ioos:station:SCCF:56:1,2016-11-06T08:00:00Z,26.4645,-82.1044,1.75,5.99,1111122 
SCCF RECON,ioos:station:SCCF:56:1,2016-11-06T09:00:00Z,26.4645,-82.1044,1.78,5.81,1111122 
SCCF RECON,ioos:station:SCCF:56:1,2016-11-06T10:00:00Z,26.4645,-82.1044,1.788,5.5,1111122 
SCCF RECON,ioos:station:SCCF:56:1,2016-11-06T11:00:00Z,26.4645,-82.1044,1.731,5.51,1111122 
SCCF RECON,ioos:station:SCCF:56:1,2016-11-06T12:00:00Z,26.4645,-82.1044,1.65,4.88,1111122 
SCCF RECON,ioos:station:SCCF:56:1,2016-11-06T13:00:00Z,26.4645,-82.1044,1.54,4.2,1111122 
SCCF RECON,ioos:station:SCCF:56:1,2016-11-06T14:00:00Z,26.4645,-82.1044,1.44,3.54,1111122 
SCCF RECON,ioos:station:SCCF:56:1,2016-11-06T15:00:00Z,26.4645,-82.1044,1.348,3.51,1111122 
SCCF RECON,ioos:station:SCCF:56:1,2016-11-06T16:00:00Z,26.4645,-82.1044,1.279,4.08,1111122 
SCCF RECON,ioos:station:SCCF:56:1,2016-11-06T17:00:00Z,26.4645,-82.1044,1.26,4.38,1111122 
SCCF RECON,ioos:station:SCCF:56:1,2016-11-06T18:00:00Z,26.4645,-82.1044,1.32,6.22,1111122 
SCCF RECON,ioos:station:SCCF:56:1,2016-11-06T19:00:00Z,26.4645,-82.1044,1.42,10.04,1111122 
SCCF RECON,ioos:station:SCCF:56:1,2016-11-06T20:00:00Z,26.4645,-82.1044,1.52,9.89,1111122 
SCCF RECON,ioos:station:SCCF:56:1,2016-11-06T21:00:00Z,26.4645,-82.1044,1.61,9.04,1111122 
SCCF RECON,ioos:station:SCCF:56:1,2016-11-06T22:00:00Z,26.4645,-82.1044,1.68,8.76,1111122 
SCCF RECON,ioos:station:SCCF:56:1,2016-11-06T23:00:00Z,26.4645,-82.1044,1.74,8.0,1111122 
SCCF RECON,ioos:station:SCCF:56:1,2016-11-07T00:00:00Z,26.4645,-82.1044,1.765,7.46,1111122 
SCCF RECON,ioos:station:SCCF:56:1,2016-11-07T01:00:00Z,26.4645,-82.1044,1.764,7.02,1111122 
SCCF RECON,ioos:station:SCCF:56:1,2016-11-07T02:00:00Z,26.4645,-82.1044,1.74,7.03,1111122 
SCCF RECON,ioos:station:SCCF:56:1,2016-11-07T03:00:00Z,26.4645,-82.1044,1.722,7.01,1111122 
SCCF RECON,ioos:station:SCCF:56:1,2016-11-07T04:00:00Z,26.4645,-82.1044,1.68,6.77,1111122 
SCCF RECON,ioos:station:SCCF:56:1,2016-11-07T05:00:00Z,26.4645,-82.1044,1.65,6.64,1111122 
SCCF RECON,ioos:station:SCCF:56:1,2016-11-07T06:00:00Z,26.4645,-82.1044,1.628,6.48,1111122 
SCCF RECON,ioos:station:SCCF:56:1,2016-11-07T07:00:00Z,26.4645,-82.1044,1.67,5.39,1111122 
SCCF RECON,ioos:station:SCCF:56:1,2016-11-07T08:00:00Z,26.4645,-82.1044,1.74,6.21,1111122 
SCCF RECON,ioos:station:SCCF:56:1,2016-11-07T09:00:00Z,26.4645,-82.1044,1.82,6.1,1111122 
SCCF RECON,ioos:station:SCCF:56:1,2016-11-07T10:00:00Z,26.4645,-82.1044,1.87,6.07,1111122 
SCCF RECON,ioos:station:SCCF:56:1,2016-11-07T11:00:00Z,26.4645,-82.1044,1.84,5.62,1111122 
SCCF RECON,ioos:station:SCCF:56:1,2016-11-07T12:00:00Z,26.4645,-82.1044,1.75,5.5,1111122 
SCCF RECON,ioos:station:SCCF:56:1,2016-11-07T13:00:00Z,26.4645,-82.1044,1.66,5.06,1111122 
SCCF RECON,ioos:station:SCCF:56:1,2016-11-07T14:00:00Z,26.4645,-82.1044,1.571,4.74,1111122 
SCCF RECON,ioos:station:SCCF:56:1,2016-11-07T15:00:00Z,26.4645,-82.1044,1.464,4.44,1111122 
SCCF RECON,ioos:station:SCCF:56:1,2016-11-07T16:00:00Z,26.4645,-82.1044,1.385,4.82,1111122 
SCCF RECON,ioos:station:SCCF:56:1,2016-11-07T17:00:00Z,26.4645,-82.1044,1.32,5.02,1111122 
SCCF RECON,ioos:station:SCCF:56:1,2016-11-07T18:00:00Z,26.4645,-82.1044,1.29,5.19,1111122 
SCCF RECON,ioos:station:SCCF:56:1,2016-11-07T19:00:00Z,26.4645,-82.1044,1.32,8.03,1111122 
SCCF RECON,ioos:station:SCCF:56:1,2016-11-07T20:00:00Z,26.4645,-82.1044,1.424,8.08,1111122 
SCCF RECON,ioos:station:SCCF:56:1,2016-11-07T21:00:00Z,26.4645,-82.1044,1.55,8.62,1111122 
SCCF RECON,ioos:station:SCCF:56:1,2016-11-07T22:00:00Z,26.4645,-82.1044,1.631,7.06,1111122 
SCCF RECON,ioos:station:SCCF:56:1,2016-11-07T23:00:00Z,26.4645,-82.1044,1.688,6.66,1111122 
SCCF RECON,ioos:station:SCCF:56:1,2016-11-08T00:00:00Z,26.4645,-82.1044,1.734,6.31,1111122 
SCCF RECON,ioos:station:SCCF:56:1,2016-11-08T01:00:00Z,26.4645,-82.1044,1.74,7.08,1111122 
SCCF RECON,ioos:station:SCCF:56:1,2016-11-08T02:00:00Z,26.4645,-82.1044,1.684,6.93,1111122 
SCCF RECON,ioos:station:SCCF:56:1,2016-11-08T03:00:00Z,26.4645,-82.1044,1.629,6.81,1111122 
SCCF RECON,ioos:station:SCCF:56:1,2016-11-08T04:00:00Z,26.4645,-82.1044,1.62,6.6,1111122 
SCCF RECON,ioos:station:SCCF:56:1,2016-11-08T05:00:00Z,26.4645,-82.1044,1.595,6.68,1111122 
SCCF RECON,ioos:station:SCCF:56:1,2016-11-08T06:00:00Z,26.4645,-82.1044,1.542,6.03,1111122 
SCCF RECON,ioos:station:SCCF:56:1,2016-11-08T07:00:00Z,26.4645,-82.1044,1.54,6.07,1111122 
SCCF RECON,ioos:station:SCCF:56:1,2016-11-08T08:00:00Z,26.4645,-82.1044,1.616,4.64,1111122 
SCCF RECON,ioos:station:SCCF:56:1,2016-11-08T09:00:00Z,26.4645,-82.1044,1.73,5.33,1111122 
SCCF RECON,ioos:station:SCCF:56:1,2016-11-08T10:00:00Z,26.4645,-82.1044,1.8,6.01,1111122 
SCCF RECON,ioos:station:SCCF:56:1,2016-11-08T11:00:00Z,26.4645,-82.1044,1.84,5.74,1111122 
SCCF RECON,ioos:station:SCCF:56:1,2016-11-08T12:00:00Z,26.4645,-82.1044,1.86,5.98,1111122 
SCCF RECON,ioos:station:SCCF:56:1,2016-11-08T13:00:00Z,26.4645,-82.1044,1.83,5.73,1111122 
SCCF RECON,ioos:station:SCCF:56:1,2016-11-08T14:00:00Z,26.4645,-82.1044,1.77,5.51,1111122 
SCCF RECON,ioos:station:SCCF:56:1,2016-11-08T15:00:00Z,26.4645,-82.1044,1.684,5.21,1111122 
SCCF RECON,ioos:station:SCCF:56:1,2016-11-08T16:00:00Z,26.4645,-82.1044,1.605,5.48,1111122 
SCCF RECON,ioos:station:SCCF:56:1,2016-11-08T17:00:00Z,26.4645,-82.1044,1.51,5.57,1111122 
SCCF RECON,ioos:station:SCCF:56:1,2016-11-08T18:00:00Z,26.4645,-82.1044,1.43,5.73,1111122 
SCCF RECON,ioos:station:SCCF:56:1,2016-11-08T19:00:00Z,26.4645,-82.1044,1.401,5.86,1111122 
SCCF RECON,ioos:station:SCCF:56:1,2016-11-08T20:00:00Z,26.4645,-82.1044,1.481,10.87,1111122 
SCCF RECON,ioos:station:SCCF:56:1,2016-11-08T21:00:00Z,26.4645,-82.1044,1.62,8.94,1111122 
SCCF RECON,ioos:station:SCCF:56:1,2016-11-08T22:00:00Z,26.4645,-82.1044,1.725,8.2,1111122 
SCCF RECON,ioos:station:SCCF:56:1,2016-11-08T23:00:00Z,26.4645,-82.1044,1.819,7.51,1111122 
SCCF RECON,ioos:station:SCCF:56:1,2016-11-09T00:00:00Z,26.4645,-82.1044,1.903,7.08,1111122 
SCCF RECON,ioos:station:SCCF:56:1,2016-11-09T01:00:00Z,26.4645,-82.1044,1.95,6.99,1111122 
SCCF RECON,ioos:station:SCCF:56:1,2016-11-09T02:00:00Z,26.4645,-82.1044,1.953,7.02,1111122 
SCCF RECON,ioos:station:SCCF:56:1,2016-11-09T03:00:00Z,26.4645,-82.1044,1.92,6.9,1111122 
SCCF RECON,ioos:station:SCCF:56:1,2016-11-09T04:00:00Z,26.4645,-82.1044,1.87,6.68,1111122 
SCCF RECON,ioos:station:SCCF:56:1,2016-11-09T05:00:00Z,26.4645,-82.1044,1.78,6.33,1111122 
SCCF RECON,ioos:station:SCCF:56:1,2016-11-09T06:00:00Z,26.4645,-82.1044,1.68,6.47,1111122 
SCCF RECON,ioos:station:SCCF:56:1,2016-11-09T07:00:00Z,26.4645,-82.1044,1.61,5.89,1111122 
SCCF RECON,ioos:station:SCCF:56:1,2016-11-09T08:00:00Z,26.4645,-82.1044,1.592,5.34,1111122 
SCCF RECON,ioos:station:SCCF:56:1,2016-11-09T09:00:00Z,26.4645,-82.1044,1.64,5.56,1111122 
SCCF RECON,ioos:station:SCCF:56:1,2016-11-09T10:00:00Z,26.4645,-82.1044,1.73,5.05,1111122 
SCCF RECON,ioos:station:SCCF:56:1,2016-11-09T11:00:00Z,26.4645,-82.1044,1.84,5.28,1111122 
SCCF RECON,ioos:station:SCCF:56:1,2016-11-09T12:00:00Z,26.4645,-82.1044,1.91,5.47,1111122 
SCCF RECON,ioos:station:SCCF:56:1,2016-11-09T13:00:00Z,26.4645,-82.1044,1.94,5.65,1111122 
SCCF RECON,ioos:station:SCCF:56:1,2016-11-09T14:00:00Z,26.4645,-82.1044,1.92,6.16,1111122 
SCCF RECON,ioos:station:SCCF:56:1,2016-11-09T15:00:00Z,26.4645,-82.1044,1.82,5.42,1111122 
SCCF RECON,ioos:station:SCCF:56:1,2016-11-09T16:00:00Z,26.4645,-82.1044,1.708,5.68,1111122 
SCCF RECON,ioos:station:SCCF:56:1,2016-11-09T17:00:00Z,26.4645,-82.1044,1.6,5.54,1111122 
SCCF RECON,ioos:station:SCCF:56:1,2016-11-09T18:00:00Z,26.4645,-82.1044,1.504,5.31,1111122 
SCCF RECON,ioos:station:SCCF:56:1,2016-11-09T19:00:00Z,26.4645,-82.1044,1.44,5.76,1111122 
SCCF RECON,ioos:station:SCCF:56:1,2016-11-09T20:00:00Z,26.4645,-82.1044,1.43,5.75,1111122 
SCCF RECON,ioos:station:SCCF:56:1,2016-11-09T21:00:00Z,26.4645,-82.1044,1.48,5.66,1111122 
SCCF RECON,ioos:station:SCCF:56:1,2016-11-09T22:00:00Z,26.4645,-82.1044,1.61,8.42,1111122 
SCCF RECON,ioos:station:SCCF:56:1,2016-11-09T23:00:00Z,26.4645,-82.1044,1.724,8.77,1111122 
SCCF RECON,ioos:station:SCCF:56:1,2016-11-10T00:00:00Z,26.4645,-82.1044,1.829,7.93,1111122 
SCCF RECON,ioos:station:SCCF:56:1,2016-11-10T01:00:00Z,26.4645,-82.1044,1.93,7.64,1111122 
SCCF RECON,ioos:station:SCCF:56:1,2016-11-10T02:00:00Z,26.4645,-82.1044,1.99,7.35,1111122 
SCCF RECON,ioos:station:SCCF:56:1,2016-11-10T03:00:00Z,26.4645,-82.1044,2.0,6.42,1111122 
SCCF RECON,ioos:station:SCCF:56:1,2016-11-10T04:00:00Z,26.4645,-82.1044,1.942,6.88,1111122 
SCCF RECON,ioos:station:SCCF:56:1,2016-11-10T05:00:00Z,26.4645,-82.1044,1.85,6.55,1111122 
SCCF RECON,ioos:station:SCCF:56:1,2016-11-10T06:00:00Z,26.4645,-82.1044,1.73,6.15,1111122 
SCCF RECON,ioos:station:SCCF:56:1,2016-11-10T07:00:00Z,26.4645,-82.1044,1.62,5.66,1111122 
SCCF RECON,ioos:station:SCCF:56:1,2016-11-10T08:00:00Z,26.4645,-82.1044,1.53,5.23,1111122 
SCCF RECON,ioos:station:SCCF:56:1,2016-11-10T09:00:00Z,26.4645,-82.1044,1.52,4.93,1111122 
SCCF RECON,ioos:station:SCCF:56:1,2016-11-10T10:00:00Z,26.4645,-82.1044,1.61,3.93,1111122 
SCCF RECON,ioos:station:SCCF:56:1,2016-11-10T11:00:00Z,26.4645,-82.1044,1.73,3.85,1111122 
SCCF RECON,ioos:station:SCCF:56:1,2016-11-10T12:00:00Z,26.4645,-82.1044,1.82,4.87,1111122 
SCCF RECON,ioos:station:SCCF:56:1,2016-11-10T13:00:00Z,26.4645,-82.1044,1.88,5.36,1111122 
SCCF RECON,ioos:station:SCCF:56:1,2016-11-10T14:00:00Z,26.4645,-82.1044,1.91,6.5,1111122 
SCCF RECON,ioos:station:SCCF:56:1,2016-11-10T15:00:00Z,26.4645,-82.1044,1.91,6.58,1111122 
SCCF RECON,ioos:station:SCCF:56:1,2016-11-10T16:00:00Z,26.4645,-82.1044,1.858,5.69,1111122 
SCCF RECON,ioos:station:SCCF:56:1,2016-11-10T17:00:00Z,26.4645,-82.1044,1.749,5.78,1111122 
SCCF RECON,ioos:station:SCCF:56:1,2016-11-10T18:00:00Z,26.4645,-82.1044,1.63,6.08,1111122 
SCCF RECON,ioos:station:SCCF:56:1,2016-11-10T19:00:00Z,26.4645,-82.1044,1.52,5.25,1111122 
SCCF RECON,ioos:station:SCCF:56:1,2016-11-10T20:00:00Z,26.4645,-82.1044,1.45,5.59,1111122 
SCCF RECON,ioos:station:SCCF:56:1,2016-11-10T21:00:00Z,26.4645,-82.1044,1.42,5.81,1111122 
SCCF RECON,ioos:station:SCCF:56:1,2016-11-10T22:00:00Z,26.4645,-82.1044,1.49,5.66,1111122 
SCCF RECON,ioos:station:SCCF:56:1,2016-11-10T23:00:00Z,26.4645,-82.1044,1.63,7.64,1111122 
SCCF RECON,ioos:station:SCCF:56:1,2016-11-11T00:00:00Z,26.4645,-82.1044,1.761,7.32,1111122 
SCCF RECON,ioos:station:SCCF:56:1,2016-11-11T01:00:00Z,26.4645,-82.1044,1.87,7.16,1111122 
SCCF RECON,ioos:station:SCCF:56:1,2016-11-11T02:00:00Z,26.4645,-82.1044,1.96,6.96,1111122 
SCCF RECON,ioos:station:SCCF:56:1,2016-11-11T03:00:00Z,26.4645,-82.1044,2.002,5.73,1111122 
SCCF RECON,ioos:station:SCCF:56:1,2016-11-11T04:00:00Z,26.4645,-82.1044,1.987,6.85,1111122 
SCCF RECON,ioos:station:SCCF:56:1,2016-11-11T05:00:00Z,26.4645,-82.1044,1.86,6.43,1111122 
SCCF RECON,ioos:station:SCCF:56:1,2016-11-11T06:00:00Z,26.4645,-82.1044,1.71,5.65,1111122 
SCCF RECON,ioos:station:SCCF:56:1,2016-11-11T07:00:00Z,26.4645,-82.1044,1.58,5.2,1111122 
SCCF RECON,ioos:station:SCCF:56:1,2016-11-11T08:00:00Z,26.4645,-82.1044,1.473,4.81,1111122 
SCCF RECON,ioos:station:SCCF:56:1,2016-11-11T09:00:00Z,26.4645,-82.1044,1.381,4.35,1111122 
SCCF RECON,ioos:station:SCCF:56:1,2016-11-11T10:00:00Z,26.4645,-82.1044,1.36,4.1,1111122 
SCCF RECON,ioos:station:SCCF:56:1,2016-11-11T11:00:00Z,26.4645,-82.1044,1.47,4.12,1111122 
SCCF RECON,ioos:station:SCCF:56:1,2016-11-11T12:00:00Z,26.4645,-82.1044,1.66,4.09,1111122 
SCCF RECON,ioos:station:SCCF:56:1,2016-11-11T13:00:00Z,26.4645,-82.1044,1.787,4.61,1111122 
SCCF RECON,ioos:station:SCCF:56:1,2016-11-11T14:00:00Z,26.4645,-82.1044,1.89,5.44,1111122 
SCCF RECON,ioos:station:SCCF:56:1,2016-11-11T15:00:00Z,26.4645,-82.1044,1.96,5.5,1111122 
SCCF RECON,ioos:station:SCCF:56:1,2016-11-11T16:00:00Z,26.4645,-82.1044,1.97,6.94,1111122 
SCCF RECON,ioos:station:SCCF:56:1,2016-11-11T17:00:00Z,26.4645,-82.1044,1.874,6.84,1111122 
SCCF RECON,ioos:station:SCCF:56:1,2016-11-11T18:00:00Z,26.4645,-82.1044,1.749,6.09,1111122 
SCCF RECON,ioos:station:SCCF:56:1,2016-11-11T19:00:00Z,26.4645,-82.1044,1.632,6.1,1111122 
SCCF RECON,ioos:station:SCCF:56:1,2016-11-11T20:00:00Z,26.4645,-82.1044,1.549,6.02,1111122 